Regional Weather Roundup
Issued by NWS

Home | Current Version | Previous Version | Graphics & Text | Print | Product List | Glossary On
Versions: 1 2 3 4 5 6 7 8 9 10 11 12 13 14 15 16 17 18 19 20 21 22 23 24 25 26 27 28 29 30 31 32 33 34 35 36 37 38 39 40 41 42 43 44 45 46 47 48 49 50
840
ASUS43 KMKX 240321
RWRWI

WISCONSIN REGIONAL WEATHER ROUNDUP
NATIONAL WEATHER SERVICE MILWAUKEE/SULLIVAN WI
1000 PM CDT SAT SEP 23 2017

NOTE: "FAIR" INDICATES FEW OR NO CLOUDS BELOW 12,000 FEET WITH NO
SIGNIFICANT WEATHER AND/OR OBSTRUCTIONS TO VISIBILITY.

WIZ001-002-006>008-014>016-023>028-240400-
NORTHWEST WISCONSIN

CITY           SKY/WX    TMP DP  RH WIND       PRES   REMARKS
SUPERIOR ARPT  CLOUDY    69  67  96 NE6       29.97F
ASHLAND        MOCLDY    69  67  93 N6        29.99R
HAYWARD        PTCLDY    70  68  93 N3        29.99R
SIREN          CLOUDY    73  69  85 SE3       29.95F
CUMBERLAND     PTCLDY    72  66  83 SE6       29.98F
RICE LAKE      PTCLDY    75  67  77 SE6       29.99F
CHETEK         PTCLDY    74  68  83 SE5       29.99S
LADYSMITH      PTCLDY    74  67  79 SE5       30.02F
EAU CLAIRE     MOCLDY    76  66  71 S7        29.97S
MENOMONIE      PTCLDY    74  68  80 SE6       29.97F
NEW RICHMOND   CLOUDY    74  66  76 SE3       29.96S
OSCEOLA        CLOUDY    78  67  70 SE9       29.96F HX  80
$$

WIZ003>005-009-010-017-018-240400-
NORTH CENTRAL WISCONSIN

CITY           SKY/WX    TMP DP  RH WIND       PRES   REMARKS
MANITOWISH WTR CLOUDY    66  66 100 CALM      30.04S
ARBOR VITAE    PTCLDY    69  67  91 CALM      30.04S
WOODRUFF       PTCLDY    69  67  91 CALM      30.04S
RHINELANDER    MOCLDY    69  66  90 CALM      30.06S
EAGLE RIVER    MOCLDY    71  63  77 CALM      30.05S
LAND O LAKES   PTCLDY    66  65  99 CALM      30.07S FOG
PHILLIPS       CLOUDY    73  67  83 S5        30.03S
TOMAHAWK       CLOUDY    65  64  93 CALM      30.06S
MEDFORD        PTCLDY    67  64  89 SE3       30.05R
MERRILL        CLOUDY    67  67  99 CALM      30.06R
$$

WIZ029-030-035-036-043>047-240400-
CENTRAL WISCONSIN

CITY           SKY/WX    TMP DP  RH WIND       PRES   REMARKS
WAUSAU         PTCLDY    71  66  84 SE3       30.03R
MOSINEE        CLEAR     73  66  78 SE3       30.06R
MARSHFIELD     CLOUDY    72  64  76 CALM      30.04R
STEVENS POINT  PTCLDY    68  67  96 CALM      30.05R
WAUPACA        CLEAR     72  68  88 CALM      30.04R
WAUTOMA        PTCLDY    68  67  96 CALM      30.04R
WISC RAPIDS    CLEAR     75  65  70 S3        30.04R
CAMP DOUGLAS   CLEAR     64  64 100 CALM      30.02R
$$

WIZ011>013-019>022-031-037>040-048>050-240400-
NORTHEAST WISCONSIN

CITY           SKY/WX    TMP DP  RH WIND       PRES   REMARKS
ANTIGO         PTCLDY    68  66  93 S3        30.07S
SHAWANO        PTCLDY    77  66  68 S5        30.04R
OCONTO         CLOUDY    74  68  81 CALM      30.03R
STURGEON BAY   CLEAR     75  66  73 S8        30.05S
GREEN BAY      CLEAR     76  68  76 S8        30.04S
MANITOWOC      CLEAR     69  66  90 CALM      30.06R
APPLETON       PTCLDY    75  63  64 SE7       30.03S
CLINTONVILLE   PTCLDY    72  64  78 CALM      30.04R
OSHKOSH        CLEAR     71  67  87 S7        30.04S
$$

WIZ032>034-041-042-053>061-240400-
SOUTHWEST WISCONSIN

CITY           SKY/WX    TMP DP  RH WIND       PRES   REMARKS
LA CROSSE      CLEAR     82  66  58 S8        29.98R HX  84
SPARTA         CLEAR     69  65  86 CALM      30.02R
VIROQUA        CLEAR     76  64  65 S6        30.04R
BOSCOBEL       CLEAR     69  65  86 CALM      30.01R
PRAIRIE DU CHI CLEAR     75  64  67 CALM      30.00R
PLATTEVILLE    CLEAR     76  64  67 SE7       30.04R
$$

WIZ056-057-062-063-064-067-068-240400-
SOUTH CENTRAL WISCONSIN

CITY           SKY/WX    TMP DP  RH WIND       PRES   REMARKS
REEDSBURG      CLEAR     71  67  88 CALM      30.03S
BARABOO/DELLS  CLEAR     71  63  75 CALM      30.04R
LONE ROCK      CLEAR     70  65  84 CALM      30.02R
MINERAL POINT  CLEAR     79  63  57 CALM      30.05R HX  80
MADISON        CLEAR     78  66  66 S8        30.03S HX  80
MIDDLETON      CLEAR     77  65  67 CALM      30.04S
WATERTOWN      CLEAR     73  67  79 SE3       30.05S
MONROE         CLEAR     79  61  53 SE7       30.05S HX  80
JANESVILLE     CLEAR     73  64  73 E3        30.04S
$$

WIZ051-052-058>065-066-070>072-240400-
SOUTHEAST WISCONSIN

CITY           SKY/WX    TMP DP  RH WIND       PRES   REMARKS
MILWAUKEE      CLEAR     76  66  71 S6        30.05S
WAUKESHA       NOT AVBL
MILWAUKEE/TIMM CLEAR     73  61  64 CALM      30.06S
RACINE         CLEAR     72  67  84 S3        30.07S
BURLINGTON     CLEAR     69  66  89 CALM      30.06S
KENOSHA        CLEAR     76  65  68 SE6       30.06S
FOND DU LAC    CLEAR     73  65  75 S3        30.05R
SHEBOYGAN      CLEAR     67  67 100 CALM      30.06R
WEST BEND        N/A     70  64  83 CALM      30.06S
JUNEAU         CLEAR     72  65  78 SE3       30.07S
$$

LSZ147-162-240400-
LAKE SUPERIOR

STATION/POSITION TIME  TEMP    WIND        PRES    WAVE
                       AIR SEA DIR/SP/G            HT/PER
                 (UTC) (F)     (DEG/KT/KT) (MB)    (FT/S)
W MID LAKE BUOY  0250   62 56   60/  2/  4 1014.9R   0
DEVILS ISLAND    0300   68      20/  8/  9 1015.2R
PORT WING        0040   75     280/  4/  6 1013.9
SAXON HARBOR     0230   70      CALM  /  3 1014.2S
$$

LMZ867-665-643>646-240400-
LAKE MICHIGAN

STATION/POSITION TIME  TEMP    WIND        PRES    WAVE
                       AIR SEA DIR/SP/G            HT/PER
                 (UTC) (F)     (DEG/KT/KT) (MB)    (FT/S)
S GREEN BAY BUOY 0300   74 69  180/ 10/ 10 1016.7
N MID LAKE BUOY  0250   69 67  200/  8/ 10 1018.0R   2/ 4
NORTHPORT PIER   0240   75     170/  4/  8 1016.9R
KEWAUNEE LAKESHO 0254   67     160/  3/  3 1016.8R
SHEBOYGAN LAKESH 0300   74     220/  4/  5 1017.2R
PORT WASHINGTON  0230   72     170/  2/  3 1018.3S
ATWATER BUOY     0209   69 66  150/  6/  6 1017.7F
MILWAUKEE LAKESH 0300   71     330/  1/  1   N/A
S MID LAKE BUOY  0250   74 72   80/  6/  8 1018.0R   0
KENOSHA   LAKESH 0300   76     180/  6/  8 1017.6
$$

TC  - TEMPERATURE IN CELSIUS
VSB - VISIBILITY IN STATUTE MILES
WCI - WIND CHILL INDEX
HX  - HEAT INDEX





USA.gov is the U.S. government's official web portal to all federal, state and local government web resources and services.